GFSNIL_con_lsi_000.txt.gz
Lid_Strength_Index
2 2 3 3 4 4 4 4 3 1 1 1 1 2 2 3 2 2 3 3 2 3
3 3 3 3 3 4 3 3 3 3 3 3 2 2 3 3 4 4 3 3 3 3
3 3 3 3 3 3 3 3 3 3 3 3 3 3 3 3 3 3 3 4 5 5
4 4 4 4 3 4 4 3 3 3 3 4 4 3 2 2 2 2 2 3 2 3
3 4 4 5 5 4 4 3 3 3 3 3 3 3 3 4 4 3 3 3 3 3
3 4 4 4 3 3 3 3 4 2 3 2 2 3 3 4 4 5 5 5 5 5
4 4 4 4 3 3 4 4 5 3 3 3 2 3 4 5 6 7 8 7 7 6
3 4 4 3 3 4 4 4 4 5 5 4 3 3 5 7 8 9 10 9 8 7
2 3 4 4 4 4 4 5 5 6 6 6 4 6 6 7 9 10 11 11 11 9
2 3 4 4 4 5 6 6 6 7 7 7 6 7 7 7 9 11 12 12 12 11
1 3 4 4 5 5 7 7 7 7 7 8 7 7 8 7 8 10 10 10 10 12
2 2 3 4 4 4 6 7 7 7 8 8 8 8 8 6 6 7 7 7 8 10
1 1 3 4 4 4 4 5 6 7 7 8 8 10 9 7 7 8 8 8 8 8
1 1 1 2 3 3 3 4 4 6 7 8 9 9 10 9 7 7 8 8 9 10

GFSNIL_con_lsi_003.txt.gz
Lid_Strength_Index
3 4 4 5 5 5 4 2 1 2 2 2 2 2 1 2 2 2 2 3 3 3
3 4 4 5 6 5 4 2 1 3 4 4 3 3 3 3 3 3 3 3 3 3
4 3 4 4 5 4 4 4 4 4 4 5 5 4 4 4 4 4 5 5 5 6
4 4 4 4 4 5 4 4 4 4 4 3 3 3 3 4 4 4 4 4 4 5
4 5 5 5 5 4 4 4 4 4 4 3 3 4 4 4 4 4 4 4 4 4
5 6 6 6 5 4 5 5 4 4 4 4 4 5 5 5 4 4 4 4 3 4
4 5 5 4 4 4 4 4 4 5 4 4 4 4 5 6 7 7 7 7 6 5
4 5 5 4 5 5 5 5 4 4 4 4 4 4 6 7 8 8 8 8 7 7
4 5 4 5 5 5 5 6 5 5 4 5 4 7 7 8 9 10 10 10 10 8
3 4 5 5 5 6 7 7 7 7 6 6 6 8 8 8 11 12 12 12 12 11
3 5 5 5 6 7 8 8 8 8 7 7 6 8 9 9 11 12 12 12 13 13
3 5 5 5 6 7 7 8 8 8 8 7 7 8 9 9 10 11 11 10 10 12
2 4 5 5 6 6 7 7 7 8 8 8 7 9 9 8 8 9 9 8 8 8
2 3 4 5 5 5 6 7 7 8 8 8 8 8 10 9 7 7 8 8 9 8

GFSNIL_con_lsi_009.txt.gz
Lid_Strength_Index
1 2 1 1 1 1 1 1 -0 0 -0 -0 -0 -0 -0 0 0 -0 0 1 1 2
1 1 1 0 1 0 0 0 -0 -0 -0 -1 -0 -0 -0 0 0 1 1 1 1 1
0 1 0 0 1 0 -0 1 1 1 1 1 -0 0 0 0 0 0 0 0 0 1
0 0 -0 0 0 1 0 0 1 1 1 1 0 -0 -0 -0 0 0 0 -0 0 0
0 0 0 0 -0 -0 -0 -0 -0 -0 0 1 1 0 0 0 0 0 1 0 0 0
0 0 0 0 0 -0 -0 0 -0 -0 0 0 1 1 1 0 0 0 0 0 0 0
0 0 1 0 0 0 -0 -0 -0 -0 0 1 1 1 1 1 1 1 0 -0 -0 0
1 0 -0 0 1 0 -0 -0 -0 0 0 0 -0 -0 -0 -0 -0 0 0 -0 -0 -0
0 0 0 0 0 0 0 0 -0 0 0 0 1 7 6 1 -0 -0 0 0 0 1
0 1 0 0 0 0 0 -0 0 0 -0 0 -0 8 8 5 -0 -0 0 0 1 2
1 1 0 0 0 0 0 0 0 0 -0 -0 1 9 9 7 1 2 2 1 1 1
1 1 1 1 1 0 0 0 0 -0 -0 0 0 9 10 6 3 4 4 5 4 3
0 1 1 0 0 1 0 0 1 1 0 3 -0 9 10 6 4 4 5 5 5 9
0 0 0 0 0 0 1 1 1 1 1 1 1 2 10 10 3 4 5 5 4 4

GFSNIL_con_lsi_015.txt.gz
Lid_Strength_Index
-0 1 1 1 1 1 0 0 0 -0 -0 -0 -0 -0 -0 -0 -0 -0 0 1 1 1
-0 0 1 0 -0 1 0 0 -0 -0 -0 -0 -0 -0 -0 0 0 0 0 0 0 1
-0 -0 0 0 1 1 0 -0 0 0 0 0 -0 -0 -0 0 0 0 0 0 1 1
-0 -0 -0 0 0 0 0 0 0 0 0 0 0 0 0 0 0 1 1 1 1 2
-0 -0 0 0 0 -0 0 0 0 0 1 1 0 0 0 1 1 1 1 1 2 2
-0 0 0 0 -0 -0 0 -0 0 0 1 1 1 1 0 1 1 1 1 1 2 2
0 -0 -0 -0 -0 -0 -0 0 0 -0 -0 -0 0 0 0 0 1 1 1 1 0 0
-0 -0 -0 -0 -0 -0 -0 -0 -0 0 -0 -0 -0 0 0 0 0 1 1 0 0 0
0 0 -0 -0 -0 -0 -0 -0 -0 -0 0 0 0 7 4 1 0 0 0 1 0 2
0 0 0 0 0 0 -0 -1 -0 -0 -0 0 0 7 6 3 -0 -0 0 0 0 0
0 1 0 0 0 0 -0 -0 -0 -0 -0 -0 1 7 7 5 -0 -0 -0 -0 -1 -0
0 1 0 1 0 0 0 0 0 -0 -0 -0 -0 8 8 4 -0 0 0 -0 -1 -0
0 0 0 0 1 0 0 0 0 0 -0 1 -0 9 9 6 0 0 0 -1 -0 7
0 0 0 0 -0 0 0 0 0 0 -0 -0 0 2 9 9 0 1 2 2 2 3

GFSNIL_con_lsi_021.txt.gz
Lid_Strength_Index
2 2 2 2 2 2 3 2 2 2 1 1 1 0 1 1 2 2 3 3 3 2
2 2 2 2 2 2 2 1 1 1 1 1 1 1 1 2 2 2 2 2 3 3
2 1 2 2 2 3 2 2 1 2 2 1 1 1 1 1 1 1 1 1 2 3
2 2 1 2 1 1 2 2 1 1 1 1 1 1 2 1 1 2 2 2 2 2
2 2 2 2 1 1 1 1 1 1 1 1 1 2 1 1 1 1 2 2 2 2
2 2 2 2 1 1 1 1 1 1 1 1 1 1 2 1 1 1 2 2 2 2
3 2 2 2 1 1 1 1 1 1 1 1 1 1 1 1 1 1 1 1 1 1
2 2 2 3 2 1 2 1 2 1 1 1 1 1 1 1 1 1 1 1 1 1
2 2 2 2 3 1 2 2 3 3 3 3 1 6 5 2 1 1 2 2 1 2
2 3 2 2 2 2 2 2 2 2 4 6 6 7 6 5 1 1 2 2 2 1
2 2 2 2 2 3 2 2 3 2 4 5 7 9 8 6 2 2 2 2 2 1
2 2 3 3 3 2 3 2 2 2 3 5 7 9 7 3 2 3 3 2 3 3
2 2 3 3 2 2 2 3 1 2 2 5 6 10 10 4 2 3 4 5 5 6
3 2 2 2 2 2 2 2 3 2 3 2 5 8 11 10 4 3 4 4 7 6

GFSNIL_con_lsi_024.txt.gz
Lid_Strength_Index
3 2 3 3 3 3 3 3 3 2 2 1 1 1 2 2 2 2 3 3 3 2
2 2 3 3 3 3 3 2 2 2 2 2 1 1 2 2 3 3 3 4 3 3
2 2 3 2 3 3 2 2 2 2 2 2 2 2 2 2 2 1 2 3 3 3
2 2 2 1 1 2 3 2 2 2 2 2 2 2 1 2 2 2 2 3 2 3
3 2 2 1 2 2 2 2 2 2 2 2 2 2 1 2 2 2 3 3 2 3
3 2 3 2 2 1 1 2 2 2 2 1 2 1 1 2 2 2 2 2 2 2
3 2 3 2 2 2 1 2 2 1 1 1 1 1 1 1 1 2 2 2 2 2
3 3 3 2 2 2 2 2 1 1 1 1 1 1 1 1 1 1 1 1 1 1
2 3 2 3 2 2 3 3 1 1 1 1 1 7 5 2 1 1 1 2 2 2
2 3 2 3 3 3 4 4 4 4 3 3 3 8 7 5 1 1 1 1 1 2
2 3 3 3 3 3 3 3 5 5 5 5 4 9 8 6 1 1 1 1 1 1
2 2 3 3 3 3 4 4 4 5 6 7 8 9 9 5 2 2 2 1 1 1
2 3 3 3 4 3 3 4 3 4 5 7 8 11 9 5 3 4 4 4 3 6
3 3 3 3 3 3 3 3 3 3 5 5 7 10 10 7 4 4 5 6 5 6

GFSNIL_con_lsi_027.txt.gz
Lid_Strength_Index
3 3 3 3 4 4 3 3 3 2 2 1 2 2 2 2 2 2 2 3 3 3
3 4 3 3 3 3 3 2 3 3 2 1 2 2 2 3 3 3 2 3 2 3
3 3 3 3 3 3 3 3 3 3 3 2 2 2 2 3 3 2 3 4 3 3
3 3 3 3 3 3 3 2 2 3 2 3 3 2 2 1 1 2 2 4 3 3
3 3 3 3 3 2 2 2 2 2 2 2 2 3 2 2 2 2 3 3 3 3
3 3 3 3 2 2 2 2 2 2 2 2 1 2 2 2 2 3 2 2 3 2
3 3 3 3 3 2 2 2 2 2 1 1 1 2 2 2 2 2 2 1 2 2
3 3 2 2 3 2 2 1 1 1 1 1 1 1 2 2 2 2 2 1 1 2
3 3 3 3 3 3 3 2 1 1 1 1 1 7 5 2 1 1 2 2 2 2
3 3 3 3 3 3 4 4 4 2 2 2 3 8 7 5 1 1 2 2 2 1
3 3 3 3 4 4 5 5 5 4 3 3 5 9 9 6 1 2 2 2 2 2
3 3 3 4 5 4 4 6 6 5 5 4 5 10 10 4 2 2 2 1 1 1
3 3 3 3 4 4 5 4 5 6 6 7 6 10 10 5 2 2 2 2 2 5
3 3 4 4 4 4 4 4 5 5 5 6 7 7 10 8 3 3 3 2 3 4

GFSNIL_con_lsi_033.txt.gz
Lid_Strength_Index
1 0 0 0 0 1 1 0 -0 -0 -0 -0 -0 -1 -0 0 0 -0 0 0 0 1
0 0 1 0 -0 0 -0 -0 -0 -0 -0 -0 -0 -0 -0 0 0 0 1 0 1 1
0 0 0 -0 0 0 -0 -0 0 -0 -0 -0 -0 -0 -0 0 -0 0 0 0 0 1
1 0 0 0 0 0 -0 0 0 0 0 0 0 -0 0 0 0 1 1 0 1 1
1 1 1 1 0 0 0 0 0 0 0 0 0 0 0 1 1 1 1 1 1 1
1 1 1 1 0 0 0 0 0 0 1 0 0 0 0 0 1 1 1 1 1 1
1 1 1 0 0 0 0 0 0 0 0 0 0 0 0 1 1 1 1 0 1 0
1 1 1 0 0 0 0 0 0 1 1 0 0 1 1 1 1 1 1 1 0 0
1 1 1 1 1 1 1 1 1 1 1 1 1 7 6 2 1 1 1 1 1 0
1 1 1 1 1 1 1 1 1 1 1 1 2 8 7 5 0 1 1 1 1 1
1 1 1 1 1 1 1 1 1 2 2 1 3 9 8 5 0 1 1 1 1 1
1 1 1 1 1 1 1 1 1 1 3 3 5 10 8 3 1 1 1 1 1 1
1 1 1 1 1 1 1 1 1 1 1 4 4 10 8 3 1 1 2 1 2 6
1 1 1 1 1 1 1 1 1 1 1 1 2 4 10 7 1 1 2 1 1 1

GFSNIL_con_lsi_036.txt.gz
Lid_Strength_Index
0 0 -0 0 0 0 0 -0 -1 -1 -1 -1 -1 -1 -1 -0 -0 -0 -0 1 1 0
0 0 0 0 -1 -0 -1 -0 -0 -1 -1 -1 -1 -1 -1 -0 -0 -0 -0 0 1 1
0 -0 -1 -1 0 -0 -0 -0 -0 -0 -0 -0 -1 -1 -0 -0 -0 0 0 -0 1 1
-0 -0 -0 -0 -0 -0 -0 -0 -0 -0 -0 -0 -0 -0 -0 -0 0 0 0 0 1 1
0 -0 0 0 0 -0 0 -0 -0 -0 0 0 -0 -0 0 0 0 1 1 1 1 1
1 0 0 0 0 -0 -0 -0 -0 -0 0 0 0 0 0 0 0 1 0 1 1 1
1 1 0 0 0 0 -0 0 0 0 0 0 0 0 0 0 0 0 0 0 0 0
0 0 0 0 0 0 0 0 0 1 0 0 0 0 0 0 0 1 1 0 0 0
1 1 0 0 0 0 0 0 0 1 1 1 1 6 5 2 1 1 1 1 1 0
1 1 1 1 1 1 1 0 1 1 1 1 0 8 7 5 0 1 1 0 1 1
1 1 1 1 1 0 0 1 1 1 1 1 1 8 7 7 0 1 1 0 0 1
1 1 1 1 1 0 1 1 1 1 1 1 1 9 7 3 1 1 1 1 2 2
1 1 1 1 1 0 0 1 1 2 1 4 2 9 8 3 1 2 2 1 2 7
0 1 0 0 0 0 0 1 1 1 1 1 1 3 9 7 1 2 2 2 1 4

GFSNIL_con_lsi_042.txt.gz
Lid_Strength_Index
0 1 1 0 1 1 1 1 0 0 0 0 0 0 0 1 1 1 1 2 1 2
1 0 0 0 1 1 0 0 0 0 0 0 0 0 0 1 1 1 1 1 1 2
1 1 0 0 1 0 0 0 1 1 0 1 0 1 1 1 1 1 1 1 1 1
1 1 1 0 0 1 0 0 1 1 1 1 1 1 1 1 1 1 2 1 2 2
1 1 1 1 1 1 1 0 1 1 1 1 1 1 1 1 1 1 2 2 2 2
2 1 1 1 1 0 0 1 1 1 1 1 1 1 1 1 1 1 1 1 2 2
2 1 1 1 0 1 1 1 1 1 1 1 1 1 1 1 1 1 1 1 1 1
2 1 1 1 1 0 1 1 1 1 1 1 1 1 1 1 1 1 1 1 1 2
2 1 2 1 1 1 1 1 1 1 1 1 1 7 6 2 1 1 1 2 1 1
2 2 1 1 1 1 1 1 1 1 1 1 1 8 7 5 1 1 1 1 1 1
2 2 2 2 2 1 1 1 1 1 1 1 2 7 7 6 1 1 1 1 1 1
1 2 2 2 2 2 2 2 1 1 1 1 2 7 9 4 1 1 1 1 1 1
1 1 2 2 2 1 1 2 1 1 1 3 1 9 9 3 1 2 2 2 2 7
1 1 1 1 1 1 2 1 2 2 1 1 1 4 10 7 1 2 2 2 3 4

GFSNIL_con_lsi_045.txt.gz
Lid_Strength_Index
2 3 3 3 3 3 2 2 2 1 1 1 1 1 2 1 1 2 2 2 2 3
2 2 3 2 2 3 2 1 2 1 2 1 1 2 2 2 2 2 2 1 1 3
2 2 2 2 2 2 2 1 2 2 2 2 2 1 2 2 2 2 2 2 2 2
2 2 2 2 2 2 2 1 1 2 2 2 1 2 2 2 2 2 2 1 2 2
2 2 2 2 2 2 2 1 1 1 1 1 1 1 2 2 2 2 2 2 2 2
2 2 2 2 2 2 2 2 1 1 1 1 1 1 2 1 2 1 2 2 2 2
2 2 2 2 2 2 2 2 1 1 1 1 1 1 1 1 2 1 2 2 1 1
2 2 2 2 2 2 2 2 1 1 1 1 2 1 2 2 2 2 2 2 1 2
2 2 2 2 2 2 2 2 2 2 1 2 2 7 5 3 2 2 2 2 2 3
2 2 2 2 2 2 3 2 2 2 3 4 5 10 7 4 1 1 2 2 2 1
2 2 2 2 2 2 2 2 2 2 3 4 5 9 9 5 1 1 1 2 2 2
2 2 2 3 3 3 2 3 3 2 3 3 3 9 9 3 1 2 3 3 2 2
2 2 2 2 2 3 2 3 2 2 3 4 3 9 9 4 2 3 3 2 3 7
2 2 2 3 3 2 2 2 2 2 2 2 3 5 8 6 1 2 3 3 3 5

GFSNIL_con_lsi_048.txt.gz
Lid_Strength_Index
3 3 3 3 3 3 3 3 2 3 2 2 2 2 2 2 2 2 2 2 2 2
3 3 3 3 3 3 3 2 2 1 2 2 2 1 2 2 2 2 2 2 1 2
3 3 3 3 3 3 3 2 2 2 2 2 2 2 2 3 2 2 2 2 2 2
3 2 2 3 2 2 3 2 2 2 2 2 2 2 3 3 2 2 2 1 2 2
2 3 3 3 3 2 2 2 2 2 2 1 1 2 2 2 1 2 2 2 2 2
3 3 3 3 3 2 2 2 2 2 2 2 1 1 2 2 1 2 3 3 3 2
2 3 3 3 3 2 2 2 2 2 1 1 1 1 1 2 2 2 2 2 2 2
2 3 2 3 2 2 2 2 2 1 1 1 1 1 2 2 2 2 2 2 1 2
2 2 2 3 3 3 2 2 2 3 2 2 3 9 5 3 3 2 3 3 3 3
2 2 2 2 2 3 3 3 3 3 3 3 5 10 7 5 2 3 3 3 3 2
2 2 2 2 3 3 3 3 3 3 4 5 5 10 8 5 1 2 3 3 3 3
2 2 2 3 3 3 3 4 4 3 4 4 5 10 8 3 2 3 3 3 2 2
2 2 2 3 3 3 3 3 3 3 4 5 4 10 8 4 2 3 3 4 4 7
2 2 2 3 3 3 3 3 3 4 4 2 3 6 9 6 3 2 3 3 3 5